Content
SEND FEEDBACK

Daily
Averages
Monthly
Summary
United States of America

REDDING, CALIFORNIA


Home > North America > United States > California
Elevation: 535 feet     Latitude: 40 31N     Longitude: 122 18W

WEATHER
 
SELECT A DAY
Number of Records: 187,199;   Date Range: 1/1/95 - 7/26/14
 
SHARE

PRINT THIS DATA

[ ← Previous Day ]
WEATHER ALMANAC - APRIL 17, 2013
[ Next Day → ]
[ °C ]   °F
Weather ElementAverageHighLow
Temperature55.3 °F69.1 °F (4:53 pm)37.9 °F (5:53 am)
Dewpoint25.6 °F32 °F (6:53 am)18 °F (9:53 am)
Humidity37.4 %76 % (5:53 am)15 % (4:53 pm)
Barometer30.29 in30.36 in (8:53 am)30.21 in (5:53 pm)
Wind Speed7.3 mph18.4 mph (9:53 am)
Wind Gust24.2 mph (9:53 am)
Weather ElementAverage
Visibility10 mi
Wind DirectionSE (137.4 °)

Weather ElementTotal
Precipitation---
Heating Degree Days11.5 (Base 65)
Growing Degree Days3.5 (Base 50)
Averaged from 23 records on April 17, 2013
WEATHER CONDITIONS BREAKOUT
WIND DIRECTION BREAKOUT
WEATHER BY HOUR - APRIL 17, 2013
[ °C ]   °F
Local TimeTemperatureDewpointHumidityBarometerVisibilityWind DirectionWind SpeedGust SpeedPrecipitationEventsConditions
1:53 AM46.9 °F30.0 °F52 %30.28 in10.0 miNNE (30°)4.6 mphClear
2:53 AM43.0 °F30.9 °F62 %30.27 in10.0 miCalmClear
3:53 AM44.1 °F30.9 °F60 %30.28 in10.0 miNorth (10°)5.8 mphClear
4:53 AM39.0 °F30.9 °F73 %30.30 in10.0 miNNW (330°)4.6 mphClear
5:53 AM37.9 °F30.9 °F76 %30.30 in10.0 miNNE (20°)10.4 mphClear
6:53 AM39.2 °F32.0 °F75 %30.33 in10.0 miWSW (240°)3.5 mphClear
7:53 AM48.0 °F32.0 °F54 %30.35 in10.0 miNorth (360°)5.8 mphClear
8:53 AM53.1 °F27.0 °F37 %30.36 in10.0 miNNE (30°)13.8 mphClear
9:53 AM57.0 °F18.0 °F22 %30.35 in10.0 miNorth (10°)18.4 mph24.2 mphClear
10:53 AM59.0 °F18.0 °F20 %30.35 in10.0 miNorth (10°)16.1 mphClear
11:53 AM60.1 °F19.0 °F20 %30.34 in10.0 miNNW (340°)12.7 mph19.6 mphClear
12:53 PM62.1 °F19.0 °F19 %30.32 in10.0 miNNW (340°)11.5 mph18.4 mphClear
1:53 PM64.0 °F21.0 °F19 %30.30 in10.0 miNE (40°)11.5 mphClear
2:53 PM66.0 °F21.0 °F18 %30.27 in10.0 miNE (50°)6.9 mph20.7 mphClear
3:53 PM66.9 °F19.9 °F17 %30.24 in10.0 miVariable3.5 mphClear
4:53 PM69.1 °F19.0 °F15 %30.22 in10.0 miNorth (360°)9.2 mphClear
5:53 PM69.1 °F21.0 °F16 %30.21 in10.0 miENE (60°)5.8 mphClear
6:53 PM68.0 °F24.1 °F19 %30.21 in10.0 miNE (50°)4.6 mphClear
7:53 PM61.0 °F28.0 °F29 %30.22 in10.0 miWNW (290°)5.8 mphClear
8:53 PM60.1 °F27.0 °F28 %30.25 in10.0 miVariable3.5 mphClear
9:53 PM57.9 °F27.0 °F31 %30.27 in10.0 miNNW (330°)5.8 mphClear
10:53 PM52.0 °F32.0 °F47 %30.28 in10.0 miCalmClear
11:53 PM48.0 °F30.9 °F52 %30.29 in10.0 miWest (260°)3.5 mphClear
Hourly data recorded from KRDD, located miles away from Redding, California







STORIES FROM OUR PARTNERS